TimeEDT,TemperatureF,Dew PointF,Humidity,Sea Level PressureIn,VisibilityMPH,Wind Direction,Wind SpeedMPH,Gust SpeedMPH,PrecipitationIn,Events,Conditions,WindDirDegrees,DateUTC
12:15 AM,69.8,68.0,94,30.11,10.0,Calm,Calm,-,N/A,,Clear,0,2013-06-26 04:15:00
12:35 AM,68.0,68.0,100,30.11,10.0,Calm,Calm,-,N/A,,Clear,0,2013-06-26 04:35:00
12:55 AM,68.0,68.0,100,30.11,10.0,Calm,Calm,-,N/A,,Clear,0,2013-06-26 04:55:00
1:15 AM,68.0,68.0,100,30.10,10.0,Calm,Calm,-,N/A,,Clear,0,2013-06-26 05:15:00
1:35 AM,68.0,68.0,100,30.09,7.0,Calm,Calm,-,N/A,,Clear,0,2013-06-26 05:35:00
1:55 AM,68.0,68.0,100,30.09,7.0,Calm,Calm,-,N/A,,Clear,0,2013-06-26 05:55:00
2:15 AM,68.0,68.0,100,30.09,7.0,Calm,Calm,-,N/A,,Clear,0,2013-06-26 06:15:00
2:35 AM,68.0,66.2,94,30.08,7.0,Calm,Calm,-,N/A,,Clear,0,2013-06-26 06:35:00
2:55 AM,68.0,66.2,94,30.07,7.0,SW,3.5,-,N/A,,Clear,230,2013-06-26 06:55:00
3:15 AM,66.2,66.2,100,30.07,7.0,West,3.5,-,N/A,,Clear,260,2013-06-26 07:15:00
3:35 AM,68.0,66.2,94,30.07,7.0,West,3.5,-,N/A,,Clear,280,2013-06-26 07:35:00
3:55 AM,68.0,66.2,94,30.06,10.0,Calm,Calm,-,N/A,,Clear,0,2013-06-26 07:55:00
4:15 AM,66.2,66.2,100,30.06,7.0,Calm,Calm,-,N/A,,Clear,0,2013-06-26 08:15:00
4:35 AM,66.2,66.2,100,30.07,7.0,West,3.5,-,N/A,,Clear,270,2013-06-26 08:35:00
4:55 AM,64.4,64.4,100,30.07,7.0,Calm,Calm,-,N/A,,Clear,0,2013-06-26 08:55:00
5:15 AM,64.4,64.4,100,30.07,5.0,Calm,Calm,-,N/A,,Clear,0,2013-06-26 09:15:00
5:35 AM,64.4,64.4,100,30.09,7.0,WNW,3.5,-,N/A,,Clear,290,2013-06-26 09:35:00
5:55 AM,64.4,64.4,100,30.09,7.0,Calm,Calm,-,N/A,,Clear,0,2013-06-26 09:55:00
6:15 AM,64.4,64.4,100,30.10,4.0,Calm,Calm,-,N/A,,Clear,0,2013-06-26 10:15:00
6:35 AM,64.4,64.4,100,30.10,4.0,Calm,Calm,-,N/A,,Clear,0,2013-06-26 10:35:00
6:55 AM,64.4,64.4,100,30.10,7.0,WSW,3.5,-,N/A,,Clear,240,2013-06-26 10:55:00
7:15 AM,64.4,64.4,100,30.10,7.0,WSW,3.5,-,N/A,,Clear,240,2013-06-26 11:15:00
7:35 AM,68.0,64.4,88,30.10,10.0,Calm,Calm,-,N/A,,Clear,0,2013-06-26 11:35:00
7:55 AM,68.0,66.2,94,30.10,10.0,SW,3.5,-,N/A,,Clear,220,2013-06-26 11:55:00
8:15 AM,69.8,68.0,94,30.10,10.0,Calm,Calm,-,N/A,,Clear,0,2013-06-26 12:15:00
8:35 AM,71.6,68.0,88,30.10,10.0,SW,3.5,-,N/A,,Clear,220,2013-06-26 12:35:00
8:55 AM,73.4,68.0,83,30.10,10.0,SSW,4.6,-,N/A,,Clear,210,2013-06-26 12:55:00
9:15 AM,75.2,68.0,78,30.10,10.0,SW,4.6,-,N/A,,Clear,220,2013-06-26 13:15:00
9:35 AM,77.0,68.0,74,30.09,10.0,SW,3.5,-,N/A,,Clear,220,2013-06-26 13:35:00
9:55 AM,78.8,68.0,69,30.08,10.0,South,4.6,-,N/A,,Clear,180,2013-06-26 13:55:00
10:15 AM,78.8,68.0,69,30.08,10.0,SW,6.9,-,N/A,,Clear,220,2013-06-26 14:15:00
10:55 AM,80.6,68.0,65,30.07,10.0,SW,4.6,-,N/A,,Mostly Cloudy,230,2013-06-26 14:55:00
11:15 AM,80.6,68.0,65,30.08,10.0,SW,5.8,-,N/A,,Overcast,220,2013-06-26 15:15:00
11:35 AM,82.4,69.8,66,30.08,10.0,SW,3.5,-,N/A,,Mostly Cloudy,230,2013-06-26 15:35:00
11:55 AM,82.4,68.0,62,30.07,10.0,SSW,6.9,-,N/A,,Mostly Cloudy,200,2013-06-26 15:55:00
12:15 PM,84.2,68.0,58,30.07,10.0,SW,3.5,-,N/A,,Scattered Clouds,230,2013-06-26 16:15:00
12:35 PM,86.0,69.8,58,30.07,10.0,South,5.8,-,N/A,,Scattered Clouds,190,2013-06-26 16:35:00
12:55 PM,86.0,68.0,55,30.06,10.0,South,6.9,-,N/A,,Scattered Clouds,170,2013-06-26 16:55:00
1:15 PM,86.0,68.0,55,30.06,10.0,South,3.5,-,N/A,,Scattered Clouds,190,2013-06-26 17:15:00
1:35 PM,87.8,69.8,55,30.05,10.0,South,8.1,-,N/A,,Clear,180,2013-06-26 17:35:00
1:55 PM,87.8,69.8,55,30.04,10.0,SSW,3.5,-,N/A,,Clear,210,2013-06-26 17:55:00
2:15 PM,87.8,68.0,52,30.03,10.0,Calm,Calm,-,N/A,,Scattered Clouds,0,2013-06-26 18:15:00
2:35 PM,87.8,66.2,49,30.02,10.0,Calm,Calm,-,N/A,,Mostly Cloudy,0,2013-06-26 18:35:00
2:55 PM,89.6,68.0,49,30.01,10.0,SW,6.9,-,N/A,Thunderstorm,Mostly Cloudy,230,2013-06-26 18:55:00
3:15 PM,78.8,68.0,69,30.01,7.0,NNW,12.7,23.0,0.02,Rain,Rain,340,2013-06-26 19:15:00
3:35 PM,77.0,71.6,83,30.02,10.0,SSW,11.5,19.6,0.03,Thunderstorm,Thunderstorm,210,2013-06-26 19:35:00
3:55 PM,77.0,69.8,78,30.00,10.0,WSW,5.8,-,0.03,,Mostly Cloudy,240,2013-06-26 19:55:00
4:15 PM,78.8,68.0,69,30.03,10.0,SW,5.8,-,N/A,,Scattered Clouds,230,2013-06-26 20:15:00
4:35 PM,77.0,68.0,74,30.02,10.0,SW,8.1,-,N/A,Thunderstorm,Scattered Clouds,220,2013-06-26 20:35:00
4:55 PM,75.2,68.0,78,30.02,10.0,SW,6.9,-,N/A,,Scattered Clouds,230,2013-06-26 20:55:00
5:15 PM,73.4,68.0,83,30.02,10.0,SW,5.8,-,N/A,,Scattered Clouds,230,2013-06-26 21:15:00
5:35 PM,73.4,68.0,83,30.01,10.0,Calm,Calm,-,N/A,,Clear,0,2013-06-26 21:35:00
5:55 PM,73.4,68.0,83,30.01,10.0,ESE,3.5,-,N/A,,Clear,120,2013-06-26 21:55:00
6:15 PM,73.4,68.0,83,30.00,10.0,Calm,Calm,-,N/A,,Clear,0,2013-06-26 22:15:00
6:35 PM,73.4,68.0,83,30.01,10.0,WSW,3.5,-,N/A,,Clear,250,2013-06-26 22:35:00
6:55 PM,75.2,68.0,78,30.01,10.0,West,4.6,-,N/A,,Clear,260,2013-06-26 22:55:00
7:15 PM,77.0,68.0,74,30.01,10.0,WSW,3.5,-,N/A,,Clear,240,2013-06-26 23:15:00
7:35 PM,75.2,68.0,78,30.01,10.0,SW,3.5,-,N/A,,Scattered Clouds,220,2013-06-26 23:35:00
7:55 PM,73.4,68.0,83,30.01,10.0,SSE,3.5,-,N/A,,Mostly Cloudy,160,2013-06-26 23:55:00
8:15 PM,73.4,68.0,83,30.01,10.0,SE,3.5,-,N/A,,Scattered Clouds,140,2013-06-27 00:15:00
8:35 PM,73.4,68.0,83,30.01,10.0,Calm,Calm,-,N/A,,Clear,0,2013-06-27 00:35:00
8:55 PM,71.6,68.0,88,30.02,10.0,Calm,Calm,-,N/A,,Mostly Cloudy,0,2013-06-27 00:55:00
9:15 PM,71.6,69.8,94,30.01,10.0,East,3.5,-,N/A,,Mostly Cloudy,100,2013-06-27 01:15:00
9:35 PM,71.6,69.8,94,30.01,10.0,East,3.5,-,N/A,,Scattered Clouds,80,2013-06-27 01:35:00
9:55 PM,69.8,69.8,100,30.01,10.0,ENE,3.5,-,N/A,,Clear,70,2013-06-27 01:55:00
10:15 PM,69.8,68.0,94,30.02,10.0,Calm,Calm,-,N/A,,Clear,0,2013-06-27 02:15:00
10:35 PM,69.8,68.0,94,30.02,10.0,NE,3.5,-,N/A,,Clear,50,2013-06-27 02:35:00
10:55 PM,68.0,68.0,100,30.03,10.0,Calm,Calm,-,N/A,,Clear,0,2013-06-27 02:55:00
11:15 PM,68.0,68.0,100,30.03,10.0,Calm,Calm,-,N/A,,Clear,0,2013-06-27 03:15:00
11:35 PM,68.0,66.2,94,30.03,10.0,NE,3.5,-,N/A,,Clear,40,2013-06-27 03:35:00
11:55 PM,68.0,66.2,94,30.03,10.0,Calm,Calm,-,N/A,,Mostly Cloudy,0,2013-06-27 03:55:00